Date String (YYYY-MM-DD hh:mm:ss) UTC,Instrument flags,Ambient pressure (hPa),Sample flow (lpm),Bypass flow (lpm),Sample temperature (°C),Ambient temperature (°C),ASC tube jacket temperature (°C),LED temperature (°C),Box temperature (°C),Sample RH (%),Span deviation,Mass concentration (μg/m³),Mass concentration (μg/m³),Mass concentration (μg/m³)
DateTimeUTC,F1_M11,P_M11,Q1_M11,Q2_M11,T1_M11,T2_M11,T3_M11,T4_M11,T5_M11,U1_M11,ZSPAN_M11,X2_M11,X0_M11,X1_M11
2023-03-08 10:00:00,,0827.2,5.00,0.00,22.5,23.1,00.0,31.1,24.5,16.1,-001.9,0010.73,0014.92,0010.35
2023-03-08 10:01:00,,0827.1,5.00,0.00,22.6,22.9,00.0,31.1,24.5,16.0,-001.6,0010.70,0014.94,0010.33
2023-03-08 10:02:00,,0826.9,4.97,0.00,22.6,22.4,00.0,31.1,24.4,16.0,-001.4,0010.73,0015.11,0010.34
2023-03-08 10:03:00,,0826.9,4.99,0.00,22.6,22.0,00.0,31.2,24.4,16.0,-001.5,0010.74,0015.10,0010.36
2023-03-08 10:04:00,,0826.9,4.99,0.00,22.6,21.7,00.0,31.2,24.3,16.0,-001.7,0010.81,0015.23,0010.38
2023-03-08 10:05:00,,0826.9,5.01,0.00,22.5,21.5,00.0,31.2,24.3,16.0,-001.6,0010.82,0014.44,0010.39
2023-03-08 10:06:00,,0826.9,5.02,0.00,22.5,21.3,00.0,31.2,24.2,16.0,-001.5,0010.82,0013.57,0010.38
2023-03-08 10:07:00,,0827.0,5.01,0.00,22.5,21.1,00.0,31.2,24.2,16.1,-001.6,0010.86,0013.66,0010.39
2023-03-08 10:08:00,,0827.2,4.99,0.00,22.5,21.0,00.0,31.2,24.2,16.1,-001.3,0010.88,0013.60,0010.40
2023-03-08 10:09:00,,0826.8,5.01,0.00,22.5,20.9,00.0,31.2,24.2,16.1,-001.0,0010.93,0013.60,0010.42
2023-03-08 10:10:00,,0826.8,4.99,0.00,22.4,20.8,00.0,31.2,24.2,16.1,-000.9,0010.94,0013.64,0010.44
2023-03-08 10:11:00,,0827.0,4.98,0.00,22.4,20.8,00.0,31.2,24.1,16.1,-000.8,0010.98,0013.79,0010.47
2023-03-08 10:12:00,,0827.0,4.99,0.00,22.4,20.7,00.0,31.2,24.1,16.1,-001.1,0011.02,0013.86,0010.50
2023-03-08 10:13:00,,0826.8,4.99,0.00,22.4,20.7,00.0,31.2,24.1,16.2,-001.3,0011.07,0014.02,0010.53
2023-03-08 10:14:00,,0827.0,4.99,0.00,22.4,20.6,00.0,31.1,24.0,16.2,-000.9,0011.13,0014.23,0010.57
2023-03-08 10:15:00,,0826.9,5.01,0.00,22.3,20.6,00.0,31.1,24.0,16.2,-000.8,0011.12,0014.16,0010.59
2023-03-08 10:16:00,,0826.9,5.01,0.00,22.4,21.5,00.0,31.1,24.2,16.2,-001.1,0011.12,0014.17,0010.60
2023-03-08 10:17:00,,0826.8,4.97,0.00,22.5,22.8,00.0,31.1,24.5,16.1,-001.2,0011.13,0014.22,0010.63
2023-03-08 10:18:00,,0826.9,5.00,0.00,22.6,23.2,00.0,31.2,24.6,16.0,-001.4,0011.12,0014.26,0010.65
2023-03-08 10:19:00,,0826.9,5.02,0.00,22.7,22.7,00.0,31.2,24.6,16.0,-001.6,0011.11,0014.25,0010.65
2023-03-08 10:20:00,,0826.8,4.99,0.00,22.7,22.3,00.0,31.2,24.5,16.0,-001.7,0011.10,0014.23,0010.66
2023-03-08 10:21:00,,0826.8,4.98,0.00,22.6,21.9,00.0,31.2,24.4,16.0,-001.9,0011.17,0014.25,0010.71
2023-03-08 10:22:00,,0826.8,5.01,0.00,22.6,21.6,00.0,31.2,24.4,16.0,-001.9,0011.18,0014.10,0010.74
2023-03-08 10:23:00,,0826.8,5.00,0.00,22.6,21.4,00.0,31.3,24.3,16.0,-001.9,0011.16,0013.99,0010.75
2023-03-08 10:24:00,,0826.8,5.00,0.00,22.6,21.3,00.0,31.3,24.3,16.1,-001.8,0011.14,0013.68,0010.75
2023-03-08 10:25:00,,0826.8,5.01,0.00,22.6,21.1,00.0,31.3,24.2,16.1,-002.0,0011.11,0013.48,0010.74
2023-03-08 10:26:00,,0826.8,5.01,0.00,22.5,21.0,00.0,31.3,24.2,16.1,-001.7,0011.13,0013.68,0010.74
2023-03-08 10:27:00,,0826.8,5.00,0.00,22.5,20.9,00.0,31.3,24.2,16.1,-001.5,0011.13,0014.15,0010.76
2023-03-08 10:28:00,,0826.8,4.98,0.00,22.5,20.8,00.0,31.2,24.2,16.1,-001.4,0011.13,0014.16,0010.76
2023-03-08 10:29:00,,0826.9,4.99,0.00,22.5,20.8,00.0,31.2,24.2,16.2,-001.4,0011.13,0014.27,0010.77
2023-03-08 10:30:00,,0826.7,4.98,0.00,22.4,20.7,00.0,31.2,24.1,16.2,-001.6,0011.15,0014.36,0010.78
2023-03-08 10:31:00,,0826.8,4.96,0.00,22.4,20.7,00.0,31.2,24.1,16.2,-001.7,0011.16,0014.33,0010.79
2023-03-08 10:32:00,,0826.9,4.97,0.00,22.4,20.7,00.0,31.2,24.1,16.2,-001.9,0011.14,0014.34,0010.76
2023-03-08 10:33:00,,0826.8,4.97,0.00,22.4,20.6,00.0,31.2,24.0,16.3,-002.0,0011.12,0014.35,0010.75
2023-03-08 10:34:00,,0826.7,5.00,0.00,22.4,20.9,00.0,31.2,24.1,16.3,-001.8,0011.14,0014.41,0010.76
2023-03-08 10:35:00,,0826.7,5.01,0.00,22.4,21.9,00.0,31.2,24.3,16.2,-001.8,0011.15,0014.48,0010.73
2023-03-08 10:36:00,,0826.8,5.02,0.00,22.6,22.9,00.0,31.2,24.5,16.2,-001.7,0011.19,0014.66,0010.74
2023-03-08 10:37:00,,0826.8,4.98,0.00,22.6,23.0,00.0,31.2,24.6,16.1,-002.0,0011.18,0014.47,0010.74
2023-03-08 10:38:00,,0826.8,4.99,0.00,22.7,22.5,00.0,31.2,24.5,16.0,-002.1,0011.19,0014.00,0010.75
2023-03-08 10:39:00,,0826.8,5.01,0.00,22.6,22.1,00.0,31.3,24.4,16.0,-002.2,0011.21,0014.10,0010.76
2023-03-08 10:40:00,,0826.8,5.01,0.00,22.6,21.8,00.0,31.3,24.4,16.0,-002.0,0011.27,0014.43,0010.80
2023-03-08 10:41:00,,0826.8,5.01,0.00,22.6,21.6,00.0,31.3,24.4,16.0,-001.7,0011.32,0014.58,0010.83
2023-03-08 10:42:00,,0826.8,4.99,0.00,22.6,21.4,00.0,31.3,24.3,16.0,-001.6,0011.33,0014.58,0010.85
2023-03-08 10:43:00,,0826.8,5.00,0.00,22.6,21.2,00.0,31.3,24.3,16.0,-001.4,0011.35,0014.62,0010.86
2023-03-08 10:44:00,,0826.8,5.00,0.00,22.6,21.1,00.0,31.3,24.2,16.0,-001.4,0011.41,0015.19,0010.91
2023-03-08 10:45:00,,0826.7,5.00,0.00,22.5,21.0,00.0,31.3,24.2,16.1,-001.6,0011.43,0015.31,0010.95
2023-03-08 10:46:00,,0826.7,5.00,0.00,22.5,20.9,00.0,31.3,24.2,16.1,-001.8,0011.47,0015.46,0010.98
2023-03-08 10:47:00,,0826.8,5.00,0.00,22.5,20.8,00.0,31.3,24.2,16.1,-001.9,0011.46,0015.47,0010.99
2023-03-08 10:48:00,,0826.8,4.98,0.00,22.5,20.8,00.0,31.3,24.2,16.1,-001.9,0011.48,0015.50,0011.01
2023-03-08 10:49:00,,0826.8,5.00,0.00,22.4,20.7,00.0,31.2,24.1,16.1,-001.8,0011.49,0015.59,0011.00
2023-03-08 10:50:00,,0826.8,5.00,0.00,22.4,20.6,00.0,31.2,24.1,16.2,-001.9,0011.50,0015.60,0011.00
2023-03-08 10:51:00,,0826.8,5.00,0.00,22.5,21.4,00.0,31.2,24.2,16.2,-001.7,0011.47,0015.08,0010.99
2023-03-08 10:52:00,,0826.8,5.00,0.00,22.5,22.5,00.0,31.2,24.4,16.1,-001.7,0011.46,0015.03,0010.96
2023-03-08 10:53:00,,0826.8,4.98,0.00,22.6,23.1,00.0,31.3,24.6,16.1,-001.9,0011.45,0015.05,0010.94
2023-03-08 10:54:00,,0826.7,5.02,0.00,22.7,22.7,00.0,31.3,24.6,16.0,-002.0,0011.46,0015.03,0010.94
2023-03-08 10:55:00,,0826.7,4.99,0.00,22.7,22.3,00.0,31.3,24.5,16.0,-001.9,0011.42,0014.42,0010.92
2023-03-08 10:56:00,,0826.7,5.02,0.00,22.7,22.0,00.0,31.3,24.4,16.0,-001.7,0011.40,0014.37,0010.88
2023-03-08 10:57:00,,0826.8,5.00,0.00,22.6,21.7,00.0,31.3,24.3,16.0,-001.5,0011.38,0014.26,0010.87
2023-03-08 10:58:00,,0826.8,4.99,0.00,22.6,21.4,00.0,31.3,24.3,16.1,-001.3,0011.38,0014.15,0010.87
2023-03-08 10:59:00,,0826.8,5.00,0.00,22.6,21.2,00.0,31.3,24.3,16.1,-001.3,0011.38,0014.93,0010.85
